Simultaneous Nadir Overpasses (SNOs) Predictions

Prediction of SNOs between LANDSAT-8 and NOAA-19 Satellite Orbit:

Table of predicted SNOs for the next 14.0 days since TLE Epoch: 3/20/2015
Index Date (LANDSAT-8) Time (LANDSAT-8) Lat,Lon (LANDSAT-8) SZA (LANDSAT-8 ) Date (NOAA-19) Time (NOAA-19) Lat,Lon (NOAA-19) SZA (NOAA-19 ) Distance(km) Time Diff (sec)
1 03/20/2015 19:31:04 72.94,-112.01 72.90 03/20/2015 19:30:27 72.96,-111.95 72.92 2.88 37
2 03/20/2015 20:20:33 -72.86, 55.48 107.19 03/20/2015 20:21:27 -72.86, 55.49 107.19 0.52 54
3 03/23/2015 00:15:13 73.30, 177.65 72.40 03/23/2015 00:14:03 73.37, 176.26 72.48 44.83 70
4 03/23/2015 01:04:48 -72.92, -15.50 108.01 03/23/2015 01:04:56 -72.90, -15.43 108.02 2.53 8
5 03/25/2015 05:49:02 -72.99, -86.42 108.80 03/25/2015 05:48:26 -73.00, -86.48 108.79 2.30 36
6 03/25/2015 06:38:29 72.90, 81.05 71.10 03/25/2015 06:39:24 72.91, 80.97 71.11 2.98 55
7 03/27/2015 10:33:12 -73.25,-156.97 109.41 03/27/2015 10:32:00 -73.30,-158.00 109.34 33.35 72
8 03/27/2015 11:22:43 72.95, 10.07 70.28 03/27/2015 11:22:52 72.95, 10.06 70.29 0.30 9
9 03/29/2015 16:06:56 73.01, -60.86 69.49 03/29/2015 16:06:20 72.99, -60.86 69.47 2.78 36
10 03/29/2015 16:56:26 -72.89, 106.54 110.65 03/29/2015 16:57:22 -72.88, 106.61 110.66 2.77 56
11 03/31/2015 20:51:05 73.26,-131.43 68.89 03/31/2015 20:49:54 73.33,-132.47 68.96 34.19 71
12 03/31/2015 21:40:39 -72.93, 35.55 111.46 03/31/2015 21:40:51 -72.96, 35.62 111.44 3.31 12
13 04/03/2015 02:24:51 -73.00, -35.39 112.24 04/03/2015 02:24:19 -72.99, -35.28 112.25 3.63 32




NCC Satellite Simultaneous Nadir Overpasses (SNOs) Prediction Service
